Regional Weather Roundup
Issued by NWS

Home | Current Version | Previous Version | Graphics & Text | Print | Product List | Glossary On
Versions: 1 2 3 4 5 6 7 8 9 10 11 12 13 14 15 16 17 18 19 20 21 22 23 24 25 26 27
000
ASUS45 KTFX 240210
RWRMT
MONTANA REGIONAL WEATHER ROUNDUP
NATIONAL WEATHER SERVICE GREAT FALLS MT
700 PM MST THU NOV 23 2017

NOTE: "FAIR" INDICATES FEW OR NO CLOUDS BELOW 12000 FEET WITH NO
SIGNIFICANT WEATHER AND/OR OBSTRUCTIONS TO VISIBILITY.

MTZ001>007-043-240300-
WEST OF THE DIVIDE

CITY           SKY/WX    TMP DP  RH WIND       PRES   REMARKS
KALISPELL      LGT RAIN  49  48  97 S6        29.56F
MISSOULA       LGT RAIN  50  46  86 E6        29.68F
BUTTE          FAIR      54  29  38 SW9G30    29.73F
MULLAN PASS    LGT RAIN  38  34  85 SW16G38   29.65F WCI  29
ANACONDA         N/A     54  34  47 S18G31    29.70F
DEER LODGE       N/A     48  41  76 E8        29.69F
EUREKA           N/A     50  41  71 MISG      29.50F
HAMILTON         N/A     48  46  93 NE7       29.73R
LIBBY            N/A     52  45  76 W6        29.54S
RONAN            N/A     52  44  74 SE9       29.70F
$$

MTZ008-052>055-240300-
SOUTHWEST MONTANA

CITY           SKY/WX    TMP DP  RH WIND       PRES   REMARKS
BOZEMAN        FAIR      58  31  35 SW21G30   29.70F
DILLON         FAIR      53  28  38 SW22      29.79F
W YELLOWSTONE  FAIR      43  37  81 SW9G16    29.95F
ENNIS          PTCLDY    50  36  57 MISG      29.88F
$$

MTZ009-010-012-014-046-048-049-054-240300-
EAST SLOPES AND CENTRAL MONTANA

CITY           SKY/WX    TMP DP  RH WIND       PRES   REMARKS
CUT BANK       CLOUDY    46  44  93 W16       29.49R
GREAT FALLS    FAIR      53  40  61 SW28G41   29.53F
MALMSTROM AFB  MOCLDY    54  41  60 SW30G45   29.54F
HELENA         FAIR      53  42  66 NW6       29.62F
BOWMANS CRNR   FAIR      47  40  74 SW30      29.55F
CHOTEAU          N/A     52  39  62 SW22      29.51F
FAIRFIELD      FAIR      49  39  66 SW21G31   29.52S
POWER          FAIR      50  39  65 SW26G33   29.51F
RAYNESFORD     FAIR      55  39  55 W26G43    29.56F
ULM            LGT RAIN  53  42  67 SW35G43   29.57F
$$

MTZ011-013-016-021-045-047-050-051-240300-
NORTH CENTRAL MONTANA

CITY           SKY/WX    TMP DP  RH WIND       PRES   REMARKS
HAVRE          FAIR      55  41  59 W24       29.41F
LEWISTOWN      FAIR      53  32  44 SW16      29.56F
N BAR RANCH    FAIR      61  28  29 W30G37    29.60F
CHINOOK          N/A     55  39  54 W6        29.43F
DENTON         FAIR      54  38  55 SW18      29.48F
GEYSER         MOCLDY    52  39  61 W15G22    29.55F
GRASS RANGE    FAIR      60  30  32 W23G33    29.52F
STANFORD       FAIR      58  30  34 W17G33    29.57F
WINIFRED       FAIR      54  35  48 SW15      29.50F
$$

MTZ017>020-022>027-061-062-240300-
NORTHEAST MONTANA

CITY           SKY/WX    TMP DP  RH WIND       PRES   REMARKS
GLASGOW        FAIR      57  37  47 SW8       29.44F
GLENDIVE       FAIR      57  37  47 W8        29.51F
JORDAN           N/A     55  36  48 SW7       29.49F
SIDNEY         FAIR      48  35  60 S10       29.45F
WOLF POINT     FAIR      54  35  48 W8        29.42F
MALTA          CLEAR     59  37  44 W12       29.44F
PLENTYWOOD       N/A     54  37  54 CALM      29.37F
POPLAR           N/A     55  36  47 SW7       29.42F
$$

MTZ028>42-056>058-240300-
SOUTHCENTRAL AND SOUTHEAST MONTANA

CITY           SKY/WX    TMP DP  RH WIND       PRES   REMARKS
BAKER          FAIR      57  38  48 SW14      29.57F
BILLINGS       FAIR      56  35  45 W10       29.65F
LIVINGSTON     FAIR      59  36  42 SW47G58   29.65F
MILES CITY     FAIR      59  39  47 SW17      29.54F
BIG TIMBER     PTCLDY    55  32  41 W14       29.70F
EKALAKA          N/A     59  33  37 SW6       29.64F
FORSYTH          N/A     64  36  34 SW9       29.55F
HARLOWTON      FAIR      55  31  40 W14       29.63F
LAUREL           N/A     57  32  38 SW13      29.65F
ROUNDUP          N/A     59  32  36 SW15      29.55F
$$

REGIONAL REPORTS...DAKOTAS

CITY           SKY/WX    TMP DP  RH WIND       PRES   REMARKS
WILLISTON      FAIR      55  36  48 SW9       29.40F
MINOT          FAIR      56  37  49 SW15      29.35F
DICKINSON      FAIR      54  36  50 SW16      29.50F
BEACH          FAIR      50  34  53 SW10      29.56F
CROSBY         FAIR      54  37  54 SW17      29.36F
TIOGA          FAIR      46  36  66 SW13      29.40F
WATFORD CITY   FAIR      50  37  62 SW10      29.42F
BISMARCK       FAIR      48  35  60 S7        29.49F
GRAND FORKS    FAIR      36  32  85 S14       29.37F WCI  27
FARGO          FAIR      43  33  68 S14       29.46F
RAPID CITY     FAIR      52  32  46 W7        29.69F
$$

REGIONAL REPORTS...WYOMING/IDAHO/WASHINGTON

CITY           SKY/WX    TMP DP  RH WIND       PRES   REMARKS
GILLETTE       FAIR      58  35  42 SW20      29.74F
SHERIDAN       FAIR      64  31  28 SW9       29.71F
BUFFALO WY     FAIR      55  28  35 VRB5      29.78F
CODY           FAIR      59  30  33 W13G22    29.81F
YELLOWSTONE LA   N/A     41  34  76 W8        30.02F
IDAHO FALLS    FAIR      53  41  63 SW21      30.00S
SALMON         FAIR      51  36  56 SE5       29.79F
BOISE          MOCLDY    59  44  57 S8        29.92S
SPOKANE        CLOUDY    50  45  83 SW20G28   29.73R
$$

REGIONAL REPORTS...ALBERTA

CITY           SKY/WX    TMP DP  RH WIND       PRES   REMARKS
EDMONTON       CLEAR     37  30  75 W10       29.30R WCI  30
CALGARY        CLOUDY    37  32  81 W10G18    29.39F WCI  30
LETHBRIDGE     PTCLDY    37  34  87 E5        29.44S
MEDICINE HAT   CLOUDY    41  36  81 NE7       29.44S
$$

REGIONAL REPORTS...SASKATCHEWAN

CITY           SKY/WX    TMP DP  RH WIND       PRES   REMARKS
SWIFT CURRENT  CLOUDY    36  34  93 W7        29.38F WCI  30
REGINA         PTCLDY    36  34  93 W8        29.32F WCI  29
SASKATOON      CLOUDY    36  32  87 SW14      29.27F WCI  27
$$




USA.gov is the U.S. government's official web portal to all federal, state and local government web resources and services.